This demonstration page uses our WeatherBlox Daily Observations layout. Learn more.

Left ArrowRight Arrow

Hourly Observations for May 7, 2020

Temp ( °F °C ) Dew Point ( °F °C ) Humidity (%) Winds ( mph kmh ) Pressure ( in mb ) Visibility ( mi km ) Precip ( " mm )
12:52 am 00:52 Mostly Clear 46 7.8 39 3.9 77 77 Calm 30.20 1023 10 16 0.00 0.00
1:52 am 01:52 Mostly Clear 45 7.2 42 5.6 90 90 SSE 5 7 30.19 1022 10 16 0.00 0.00
2:52 am 02:52 Mostly Clear 43 6.1 39 3.9 86 86 SSE 3 6 30.18 1022 10 16 0.00 0.00
3:52 am 03:52 Mostly Clear 43 6.1 40 4.4 89 89 SE 5 7 30.18 1022 10 16 0.00 0.00
4:52 am 04:52 Partly Cloudy 41 5 38 3.3 89 89 SE 3 6 30.17 1022 10 16 0.00 0.00
5:52 am 05:52 Mostly Cloudy 41 5 40 4.4 96 96 SSE 5 7 30.15 1021 9 14 0.00 0.00
6:52 am 06:52 Mostly Cloudy 42 5.6 39 3.9 89 89 SSE 6 9 30.15 1021 10 16 0.00 0.00
7:52 am 07:52 Mostly Cloudy 44 6.7 41 5 89 89 ESE 3 6 30.10 1019 9 14 0.00 0.00
8:52 am 08:52 Cloudy 50 10 44 6.7 80 80 Calm 30.12 1020 10 16 0.00 0.00
9:52 am 09:52 Cloudy 54 12.2 43 6.1 67 67 Calm 30.15 1021 10 16 0.00 0.00
10:52 am 10:52 Cloudy 60 15.6 41 5 50 50 WSW 7 11 30.11 1020 10 16 0.00 0.00
11:52 am 11:52 Cloudy 59 15 39 3.9 48 48 SSW 8 13 30.09 1019 10 16 0.00 0.00
12:52 pm 12:52 Cloudy with Light Rain 58 14.4 36 2.2 44 44 S 9 15 30.06 1018 10 16 0.00 0.00
1:52 pm 13:52 Cloudy 56 13.3 44 6.7 65 65 SW 5 7 30.04 1017 10 16 0.00 0.00
2:52 pm 14:52 Cloudy 56 13.3 41 5 57 57 S 6 9 30.03 1017 10 16 0.00 0.00
3:52 pm 15:52 Cloudy with Light Rain 54 12.2 45 7.2 72 72 S 3 6 30.03 1017 10 16 0.00 0.00
4:52 pm 16:52 Cloudy with Light Rain 53 11.7 48 8.9 83 83 E 5 7 30.02 1017 9 14 0.00 0.00
5:52 pm 17:52 Cloudy with Light Rain 52 11.1 45 7.2 77 77 E 8 13 30.01 1016 10 16 0.01 0.25
6:52 pm 18:52 Cloudy with Light Rain 51 10.6 45 7.2 80 80 E 7 11 30.03 1017 10 16 0.00 0.00
7:52 pm 19:52 Cloudy 51 10.6 46 7.8 83 83 E 7 11 30.01 1016 10 16 0.00 0.00
8:52 pm 20:52 Cloudy with Light Rain 50 10 45 7.2 83 83 ENE 5 7 30.02 1017 10 16 0.00 0.00
9:52 pm 21:52 Cloudy with Light Rain 49 9.4 45 7.2 86 86 ENE 8 13 30.02 1017 10 16 0.01 0.25
10:52 pm 22:52 Cloudy with Light Rain 48 8.9 45 7.2 89 89 NNW 15 24 30.06 1018 5 8 0.01 0.25
11:52 pm 23:52 Cloudy with Rain 47 8.3 46 7.8 97 97 NNW 12 19 30.09 1019 6 10 0.14 3.56

Powered by AerisWeather